Погода в Манчестере

Великобритания     53°28′50″N   2°14′52″W
темп.,
°C
ветер,
м/с
пор.,
м/с
влажн.,
%
обл.,
%
осадки,
мм/ч
давл.,
гПа
погр.,
м
17 апреля, сб
сб1701:00+5ююв13716 0.0 103193
04:00+4ю12785 0.0 103148
07:00+4ю117899 0.0 103160
10:00+8ю1161100 0.0 1030525
13:00+13юз124321 0.0 10291566
16:00+14вюв013728 0.0 10271867
19:00+12ююз234879 0.0 1026780
22:00+10ю2357100 0.0 1027367
18 апреля, вс
вс1801:00+8ююз2357100 0.0 1027341
04:00+6ююв1265100 0.0 1026142
07:00+5ю1266100 0.0 1026145
10:00+9ю1257100 0.0 1026553
13:00+13юз2246100 0.0 10251458
16:00+14ююз2241100 0.0 10231800
19:00+12юз225098 0.0 1023624
22:00+10с016448 0.0 102472
19 апреля, пн
пн1901:00+7юв12675 0.0 102469
04:00+6всв11663 0.0 102320
07:00+6всв11675 0.0 102355
10:00+11ююв12469 0.0 1022717
13:00+14ю234022 0.0 10211597
16:00+15ю334483 0.0 10191819
19:00+13ю235173 0.0 10191053
22:00+11з1158100 0.0 101990
20 апреля, вт
вт2001:00+10зсз1163100 0.0 101884
04:00+9зсз1266100 0.0 1018138
07:00+8сз2369100 0.0 1018182
10:00+11сз3358100 0.0 1019787
13:00+12сз4360100 0.0 10191248
16:00+12сз336099 0.0 10201097
19:00+10сз346995 0.0 1021458
22:00+9св2575100 0.0 1022555
21 апреля, ср
ср2101:00+7св24797 0.0 1023204
04:00+5св128165 0.0 102460
07:00+6всв127497 0.0 1025130
10:00+9вюв015896 0.0 1026541
13:00+13сз124462 0.0 10261722
16:00+13ссв324471 0.0 10251669
19:00+12с235058 0.0 1026548
22:00+9ссв236396 0.0 1027147